| time (UTC) | temp F | wind direction | speed knots | gust knots | rain 1hr in | rain 24hr in | rain mn in | humidity % | barometer mb |
| 20260507114528 | 79 | 53 | 1.7 | 5.2 | 0.00 | 0.00 | 0.00 | 96 | 1010.6 |
| 20260507113028 | 79 | 90 | 0.9 | 3.5 | 0.00 | 0.00 | 0.00 | 96 | 1010.6 |
| 20260507111527 | 79 | 65 | 2.6 | 7.8 | 0.00 | 0.00 | 0.00 | 96 | 1010.2 |
| 20260507110029 | 79 | 111 | 5.2 | 12.2 | 0.00 | 0.00 | 0.00 | 96 | 1009.5 |
| 20260507104530 | 79 | 90 | 5.2 | 10.4 | 0.00 | 0.00 | 0.00 | 95 | 1009.6 |
| 20260507103030 | 79 | 5 | 3.5 | 7.0 | 0.00 | 0.00 | 0.00 | 95 | 1009.8 |
| 20260507101527 | 79 | 66 | 1.7 | 6.1 | 0.00 | 0.00 | 0.00 | 95 | 1010.2 |
| 20260507100033 | 79 | 51 | 2.6 | 5.2 | 0.00 | 0.00 | 0.00 | 95 | 1010.4 |
| 20260507094530 | 80 | 53 | 1.7 | 4.3 | 0.00 | 0.00 | 0.00 | 94 | 1010.7 |
| 20260507093028 | 80 | 0 | 0.9 | 3.5 | 0.00 | 0.00 | 0.00 | 94 | 1010.5 |
| 20260507091529 | 80 | 0 | 0.9 | 4.3 | 0.00 | 0.00 | 0.00 | 94 | 1010.8 |
| 20260507090029 | 80 | 42 | 0.9 | 3.5 | 0.00 | 0.00 | 0.00 | 94 | 1010.3 |
| 20260507084527 | 80 | 82 | 0.0 | 3.5 | 0.00 | 0.00 | 0.00 | 94 | 1010.2 |
| 20260507083028 | 80 | 74 | 0.9 | 3.5 | 0.00 | 0.00 | 0.00 | 94 | 1010.3 |
| 20260507081528 | 80 | 94 | 1.7 | 3.5 | 0.00 | 0.00 | 0.00 | 94 | 1010.5 |
| 20260507080037 | 80 | 97 | 0.0 | 2.6 | 0.00 | 0.00 | 0.00 | 94 | 1010.9 |
| 20260507074530 | 80 | 90 | 1.7 | 5.2 | 0.00 | 0.00 | 0.00 | 93 | 1010.6 |
| 20260507073026 | 80 | 117 | 0.9 | 3.5 | 0.00 | 0.00 | 0.00 | 93 | 1010.7 |
| 20260507071557 | 80 | 110 | 1.7 | 5.2 | 0.00 | 0.00 | 0.00 | 93 | 1010.8 |
| 20260507070032 | 80 | 101 | 3.5 | 7.0 | 0.00 | 0.00 | 0.00 | 94 | 1010.6 |
| 20260507064527 | 80 | 86 | 1.7 | 5.2 | 0.00 | 0.00 | 0.00 | 94 | 1010.4 |
| 20260507063032 | 80 | 122 | 0.9 | 7.0 | 0.00 | 0.00 | 0.00 | 94 | 1010.6 |
| 20260507061529 | 80 | 89 | 1.7 | 7.0 | 0.00 | 0.00 | 0.00 | 94 | 1010.6 |
| 20260507060035 | 80 | 112 | 0.9 | 3.5 | 0.00 | 0.00 | 0.00 | 94 | 1010.6 |
| 20260507054528 | 80 | 0 | 1.7 | 6.1 | 0.00 | 0.00 | 0.00 | 94 | 1010.8 |
| 20260507053044 | 80 | 0 | 1.7 | 7.0 | 0.00 | 0.00 | 0.00 | 94 | 1010.8 |
| 20260507051539 | 80 | 109 | 2.6 | 6.1 | 0.00 | 0.00 | 0.00 | 94 | 1010.7 |
| 20260507050034 | 80 | 101 | 2.6 | 7.0 | 0.00 | 0.00 | 0.00 | 94 | 1010.7 |
| 20260507044530 | 80 | 111 | 1.7 | 6.1 | 0.00 | 0.00 | 0.00 | 94 | 1010.7 |
| 20260507043028 | 80 | 67 | 2.6 | 7.0 | 0.00 | 0.00 | 0.00 | 94 | 1010.2 |
| 20260507041529 | 80 | 109 | 2.6 | 7.0 | 0.00 | 0.00 | 0.00 | 94 | 1010.3 |
| 20260507040030 | 80 | 87 | 3.5 | 7.8 | 0.00 | 0.00 | 0.00 | 94 | 1010.2 |
| 20260507034535 | 80 | 104 | 1.7 | 7.0 | 0.00 | 0.00 | 0.00 | 94 | 1010.0 |
| 20260507033039 | 80 | 107 | 2.6 | 7.0 | 0.00 | 0.00 | 0.00 | 94 | 1009.7 |
| 20260507031530 | 80 | 144 | 4.3 | 8.7 | 0.00 | 0.00 | 0.00 | 93 | 1009.5 |
| 20260507030029 | 80 | 93 | 2.6 | 8.7 | 0.00 | 0.00 | 0.00 | 93 | 1009.1 |
| 20260507024533 | 81 | 86 | 4.3 | 7.8 | 0.00 | 0.00 | 0.00 | 93 | 1009.0 |
| 20260507023033 | 81 | 96 | 5.2 | 10.4 | 0.00 | 0.00 | 0.00 | 93 | 1008.8 |
| 20260507021532 | 81 | 105 | 2.6 | 7.8 | 0.00 | 0.00 | 0.00 | 93 | 1008.8 |
| 20260507020029 | 81 | 98 | 3.5 | 12.2 | 0.00 | 0.00 | 0.00 | 93 | 1008.5 |
| 20260507014528 | 81 | 90 | 5.2 | 11.3 | 0.00 | 0.00 | 0.00 | 92 | 1008.3 |
| 20260507013029 | 81 | 132 | 5.2 | 12.2 | 0.00 | 0.00 | 0.00 | 92 | 1007.9 |
| 20260507011537 | 81 | 76 | 7.0 | 13.0 | 0.00 | 0.00 | 0.00 | 91 | 1007.7 |
| 20260507010028 | 82 | 93 | 5.2 | 14.8 | 0.00 | 0.00 | 0.00 | 90 | 1007.5 |
| 20260507004536 | 82 | 92 | 7.0 | 11.3 | 0.00 | 0.00 | 0.00 | 89 | 1007.2 |
| 20260507003030 | 83 | 103 | 5.2 | 13.0 | 0.00 | 0.00 | 0.00 | 87 | 1007.1 |
| 20260507001528 | 84 | 103 | 5.2 | 13.0 | 0.00 | 0.00 | 0.00 | 86 | 1007.0 |
| 20260507000029 | 85 | 78 | 6.1 | 13.0 | 0.00 | 0.00 | 0.00 | 85 | 1006.9 |
| 20260506234530 | 85 | 108 | 6.1 | 13.0 | 0.00 | 0.00 | 0.00 | 84 | 1006.7 |
| 20260506233030 | 86 | 78 | 7.8 | 14.8 | 0.00 | 0.00 | 0.00 | 83 | 1006.6 |
| 20260506231530 | 86 | 115 | 7.0 | 16.5 | 0.00 | 0.00 | 0.00 | 83 | 1006.3 |
| 20260506230027 | 88 | 111 | 8.7 | 17.4 | 0.00 | 0.00 | 0.00 | 81 | 1006.0 |
| 20260506224530 | 90 | 92 | 8.7 | 14.8 | 0.00 | 0.00 | 0.00 | 77 | 1005.9 |
| 20260506223028 | 90 | 99 | 8.7 | 14.8 | 0.00 | 0.00 | 0.00 | 77 | 1005.8 |
| 20260506221530 | 91 | 139 | 6.1 | 13.9 | 0.00 | 0.00 | 0.00 | 74 | 1005.9 |
| 20260506220037 | 92 | 77 | 7.8 | 14.8 | 0.00 | 0.00 | 0.00 | 72 | 1005.9 |
| 20260506214528 | 93 | 156 | 6.1 | 12.2 | 0.00 | 0.00 | 0.00 | 69 | 1005.8 |
| 20260506213032 | 94 | 188 | 4.3 | 10.4 | 0.00 | 0.00 | 0.00 | 66 | 1005.9 |
| 20260506211532 | 93 | 176 | 5.2 | 12.2 | 0.00 | 0.00 | 0.00 | 68 | 1005.8 |
| 20260506210032 | 93 | 177 | 7.0 | 15.6 | 0.00 | 0.00 | 0.00 | 69 | 1005.9 |
| 20260506204530 | 93 | 159 | 6.1 | 13.0 | 0.00 | 0.00 | 0.00 | 69 | 1006.1 |
| 20260506203029 | 92 | 166 | 6.1 | 14.8 | 0.00 | 0.00 | 0.00 | 70 | 1006.5 |
| 20260506201530 | 92 | 184 | 4.3 | 11.3 | 0.00 | 0.00 | 0.00 | 71 | 1006.8 |
| 20260506200030 | 91 | 159 | 7.0 | 13.0 | 0.00 | 0.00 | 0.00 | 72 | 1006.9 |
| 20260506194528 | 91 | 199 | 7.0 | 14.8 | 0.00 | 0.00 | 0.00 | 73 | 1007.2 |
| 20260506193028 | 91 | 120 | 6.1 | 16.5 | 0.00 | 0.00 | 0.00 | 73 | 1007.2 |
| 20260506191528 | 91 | 148 | 7.8 | 16.5 | 0.00 | 0.00 | 0.00 | 72 | 1007.3 |
| 20260506190030 | 91 | 157 | 6.1 | 14.8 | 0.00 | 0.00 | 0.00 | 74 | 1007.4 |
| 20260506184529 | 90 | 186 | 8.7 | 14.8 | 0.00 | 0.00 | 0.00 | 75 | 1007.5 |
| 20260506183030 | 90 | 202 | 7.8 | 21.7 | 0.00 | 0.00 | 0.00 | 76 | 1007.6 |
| 20260506181528 | 89 | 140 | 6.1 | 17.4 | 0.00 | 0.00 | 0.00 | 77 | 1007.9 |
| 20260506180030 | 88 | 177 | 8.7 | 16.5 | 0.00 | 0.00 | 0.00 | 79 | 1008.0 |
| 20260506174529 | 87 | 162 | 7.8 | 18.2 | 0.00 | 0.00 | 0.00 | 79 | 1008.2 |
| 20260506173028 | 86 | 149 | 7.0 | 16.5 | 0.00 | 0.00 | 0.00 | 81 | 1008.3 |
| 20260506171528 | 86 | 143 | 5.2 | 13.9 | 0.00 | 0.00 | 0.00 | 81 | 1008.5 |
| 20260506170028 | 86 | 155 | 7.0 | 14.8 | 0.00 | 0.00 | 0.00 | 81 | 1008.4 |
| 20260506164530 | 86 | 175 | 7.8 | 15.6 | 0.00 | 0.00 | 0.00 | 81 | 1008.5 |
| 20260506163032 | 85 | 117 | 7.0 | 15.6 | 0.00 | 0.00 | 0.00 | 82 | 1008.5 |
| 20260506161526 | 85 | 157 | 7.0 | 15.6 | 0.00 | 0.00 | 0.00 | 82 | 1008.4 |
| 20260506160028 | 84 | 166 | 4.3 | 10.4 | 0.00 | 0.00 | 0.00 | 85 | 1008.2 |
| 20260506154532 | 84 | 157 | 6.1 | 13.0 | 0.00 | 0.00 | 0.00 | 86 | 1008.2 |
| 20260506153029 | 83 | 177 | 5.2 | 11.3 | 0.00 | 0.00 | 0.00 | 87 | 1008.2 |
| 20260506151529 | 82 | 148 | 3.5 | 10.4 | 0.00 | 0.00 | 0.00 | 89 | 1008.2 |
| 20260506150027 | 81 | 144 | 5.2 | 8.7 | 0.00 | 0.00 | 0.00 | 89 | 1008.5 |
| 20260506144534 | 81 | 146 | 3.5 | 7.8 | 0.00 | 0.00 | 0.00 | 89 | 1008.7 |
| 20260506143031 | 81 | 162 | 5.2 | 9.6 | 0.00 | 0.00 | 0.00 | 90 | 1008.7 |
| 20260506141535 | 81 | 182 | 2.6 | 7.8 | 0.00 | 0.00 | 0.00 | 91 | 1008.8 |
| 20260506140030 | 80 | 163 | 3.5 | 7.8 | 0.00 | 0.00 | 0.00 | 91 | 1008.8 |
| 20260506134527 | 80 | 169 | 3.5 | 7.0 | 0.00 | 0.00 | 0.00 | 92 | 1008.7 |
| 20260506133028 | 79 | 198 | 4.3 | 9.6 | 0.00 | 0.00 | 0.00 | 92 | 1008.7 |
| 20260506131528 | 79 | 190 | 4.3 | 8.7 | 0.00 | 0.00 | 0.00 | 92 | 1008.4 |
| 20260506130030 | 79 | 165 | 3.5 | 9.6 | 0.00 | 0.00 | 0.00 | 93 | 1008.2 |
| 20260506124529 | 79 | 150 | 2.6 | 11.3 | 0.00 | 0.00 | 0.00 | 93 | 1007.7 |
| 20260506123029 | 79 | 144 | 3.5 | 8.7 | 0.00 | 0.00 | 0.00 | 94 | 1007.6 |
| 20260506121529 | 78 | 149 | 4.3 | 9.6 | 0.00 | 0.00 | 0.00 | 94 | 1007.4 |
| 20260506120031 | 78 | 131 | 5.2 | 13.0 | 0.00 | 0.00 | 0.00 | 94 | 1006.9 |